Regional Weather Roundup
Issued by NWS Lake Charles, LA

Home | Current Version | Previous Version | Text Only | Print | Product List | Glossary On
Versions: 1 2 3 4 5 6 7 8 9 10 11 12 13 14 15 16 17 18 19 20 21 22 23 24 25 26 27 28 29 30 31 32 33 34 35 36 37 38 39 40 41 42 43 44 45 46 47 48 49 50
000
ASUS44 KLCH 050510
RWRLCH
REGIONAL WEATHER ROUNDUP
NATIONAL WEATHER SERVICE LAKE CHARLES LA
1200 AM CDT THU MAY 05 2016

Note: "fair" indicates few or no clouds below 12,000 feet with no
significant weather and/or obstructions to visibility.


ACROSS SOUTHEAST TEXAS

CITY           SKY/WX    TMP DP  RH WIND       PRES   REMARKS
BEAUMONT       CLEAR     62  58  86 W5        29.95S
BEAUMONT CITY  FAIR      67  58  74 CALM      29.97S
ORANGE         CLEAR     64  55  74 CALM      29.98R
JASPER         CLEAR     59  56  91 CALM      29.98S
$$

ACROSS CENTRAL LOUISIANA

CITY           SKY/WX    TMP DP  RH WIND       PRES   REMARKS
LEESVILLE      CLEAR     64  56  74 W7        29.93R
FULLERTON      FAIR      62  56  80 CALM      29.91R
ALEXANDRIA INT CLEAR     63  57  81 CALM      29.90S
ESLER FIELD    CLEAR     60  56  86 CALM      29.91S
DERIDDER       FAIR      64  56  76 W5        29.96S
OAKDALE        CLEAR     57  57  97 CALM      29.93S
OPELOUSAS      FAIR     N/A N/A N/A CALM      29.92S
$$

ACROSS SOUTHWEST AND SOUTH CENTRAL LOUISIANA

CITY           SKY/WX    TMP DP  RH WIND       PRES   REMARKS
SULPHUR        CLEAR     66  57  74 W5        29.96R
LAKE CHARLES   PTCLDY    67  57  70 W3        29.94S
CHENNAULT INT  PTCLDY    66  58  73 W3        29.94S
CAMERON PHI    CLEAR     70  63  78 NW5       29.97S
DEQUINCY       FAIR      61  56  84 CALM      29.96R
JENNINGS       FAIR      66  57  72 W7        29.94R
LAFAYETTE      CLEAR     66  56  70 W5        29.92S
NEW IBERIA     CLEAR     62  57  83 SW5       29.93S
ABBEVILLE      NOT AVBL
PATTERSON      NOT AVBL
SALT POINT       N/A     72  62  71 VRB5      29.92S
$$

SELECTED SITES ACROSS THE REGION

CITY           SKY/WX    TMP DP  RH WIND       PRES   REMARKS
HOUSTON BUSH   CLEAR     64  57  78 CALM      29.98R
HOUSTON HOBBY  CLEAR     66  57  72 SW5       29.97R
GALVESTON      CLEAR     72  63  73 CALM      29.98S
COLLEGE STAT   CLEAR     67  55  65 NW6       30.00R
CONROE         CLEAR     58  56  93 CALM      29.99R
HUNTSVILLE     CLEAR     65  54  67 CALM      29.98S
LUFKIN         CLEAR     60  55  83 CALM      29.96S
SHREVEPORT     CLEAR     69  54  58 NW8       29.94R
MONROE         PTCLDY    68  55  63 NW7       29.90R
NATCHEZ MS     PTCLDY    61  54  77 CALM      29.89S
BATON ROUGE    PTCLDY    63  54  72 W5        29.90F
N.O. INTL ARPT CLEAR     65  53  65 W7        29.90F
SLIDELL        CLEAR     61  55  81 CALM      29.88F
$$

MARINE REPORTS

STATION/POSITION TIME  SKY/WX   TEMP    WIND        PRES    VSBY
                                AIR SEA DIR/SP/G
                 (UTC)          (F)     (DEG/KT/KT) (MB)    (MI)
BUOY 30 S HIGH I 0450            74 75  240/ 10/ 12 1014.4R
WVE H/P(F/S)=  1/ 3

SEA RIM ST PARK  0400            72     280/  5/  5 1014.8R
PORT ARTHUR      0400               75  270/  4/  5 1014.4R
SABINE PASS N    0400            72 76  270/  3/  7 1015.6R
TEXAS POINT      NOT AVBL
CALCASIEU PASS   0400            72 75  290/  6/  7 1013.2R
LK CHARLES BEACH 0400            73 76              1014.3R
MARSH ISLAND     0400            74      10/ 15/ 18   N/A
FRESH WATER LOCK 0400            71 76  250/  6/  7 1014.4R
AMERADA PASS     0400            71 73  250/  3/  4 1013.2R
$$



USA.gov is the U.S. government's official web portal to all federal, state and local government web resources and services.